Weather History for Gwinner, ND

Change the Weather History Date:

Monday, February 18, 2013

  Actual Average (KP67) Record (KP67)
Temperature  
Mean Temperature 19 °F -  
Max Temperature 35 °F 28 °F 37 °F (1997)
Min Temperature 3 °F 12 °F 12 °F (1997)
Degree Days  
Heating Degree Days 46    
Moisture  
Dew Point 10 °F    
Average Humidity 81    
Maximum Humidity 100    
Minimum Humidity 66    
Precipitation  
Precipitation 0.00 in - - ()
Sea Level Pressure  
Sea Level Pressure 29.83 in    
Wind  
Wind Speed 21 mph (NNW)    
Max Wind Speed 36 mph    
Max Gust Speed 46 mph    
Visibility 5 miles    
Events      
Averages and records for this station are not official NWS values.
T = Trace of Precipitation, MM = Missing Value Source: NWS Daily Summary

Daily Weather History Graph

Daily Weather History Graph

Search for Another Location

Airport:

Trip Planner

Search our weather history database for the weather conditions in past years. The results will help you decide how hot, cold, wet, or windy it might be!

Date:

Astronomy

Feb. 18, 2013 Rise Set
Actual Time 7:28 AM CST 6:01 PM CST
Civil Twilight 6:57 AM CST 6:32 PM CST
Nautical Twilight 6:22 AM CST 7:07 PM CST
Astronomical Twilight 5:48 AM CST 7:41 PM CST
Moon 11:38 AM CST (2/18) 2:18 AM CST (2/18)
Length of Visible Light 11h 34m
Length of Day
10h 33m
First Quarter, 58% of the Moon is Illuminated
Feb 18
First Quarter
Feb 25
Full
Mar 4
Last Quarter
Mar 11
New
Mar 19
First Quarter

Hourly Weather History & Observations

Time (CST) Temp. Windchill Dew Point Humidity Pressure Visibility Wind Dir Wind Speed Gust Speed Precip Events Conditions
12:15 AM 32.0 °F 24.8 °F 30.2 °F 93% 29.50 in 10.0 mi WSW 8.1 mph - 0.00 in   Overcast
12:55 AM 32.0 °F 23.6 °F 32.0 °F 100% 29.50 in 10.0 mi West 10.4 mph - 0.00 in   Overcast
1:15 AM 32.0 °F 24.2 °F 32.0 °F 100% 29.50 in 10.0 mi West 9.2 mph - 0.00 in   Overcast
1:35 AM 33.8 °F 26.4 °F 33.8 °F 100% 29.51 in 10.0 mi WSW 9.2 mph - 0.00 in   Overcast
1:55 AM 33.8 °F 25.8 °F 33.8 °F 100% 29.51 in 10.0 mi WSW 10.4 mph - 0.00 in   Overcast
2:35 AM 35.6 °F 25.9 °F 35.6 °F 100% 29.51 in 3.0 mi West 16.1 mph - 0.00 in   Overcast
2:55 AM 35.6 °F 26.2 °F 35.6 °F 100% 29.52 in 3.0 mi West 15.0 mph - 0.00 in   Overcast
3:15 AM 35.6 °F 25.5 °F 35.6 °F 100% 29.51 in 4.0 mi WNW 17.3 mph - 0.00 in   Overcast
3:35 AM 32.0 °F 16.5 °F 32.0 °F 100% 29.53 in 7.0 mi NW 35.7 mph 46.0 mph 0.00 in   Overcast
3:55 AM 30.2 °F 15.4 °F 28.4 °F 93% 29.55 in 4.0 mi NNW 28.8 mph 35.7 mph 0.00 in   Overcast
4:15 AM 28.4 °F 12.7 °F 26.6 °F 93% 29.57 in 5.0 mi NNW 29.9 mph 35.7 mph 0.00 in   Overcast
4:35 AM 26.6 °F 10.3 °F 23.0 °F 86% 29.59 in 5.0 mi NW 29.9 mph 34.5 mph 0.00 in   Overcast
4:55 AM 24.8 °F 7.9 °F 23.0 °F 93% 29.60 in 6.0 mi NW 29.9 mph 34.5 mph 0.00 in   Overcast
5:15 AM 23.0 °F 6.0 °F 21.2 °F 93% 29.62 in 8.0 mi NW 27.6 mph 36.8 mph 0.00 in   Overcast
5:35 AM 23.0 °F 5.4 °F 21.2 °F 93% 29.64 in 9.0 mi NW 29.9 mph 34.5 mph 0.00 in   Overcast
5:55 AM 23.0 °F 5.4 °F 19.4 °F 86% 29.65 in 6.0 mi NNW 29.9 mph 35.7 mph 0.00 in   Overcast
6:15 AM 21.2 °F 4.5 °F 19.4 °F 93% 29.67 in 8.0 mi NW 24.2 mph 31.1 mph 0.00 in   Overcast
6:35 AM 19.4 °F 1.8 °F 17.6 °F 93% 29.68 in 10.0 mi NNW 25.3 mph 32.2 mph 0.00 in   Overcast
6:55 AM 19.4 °F 1.4 °F 14.0 °F 80% 29.70 in 5.0 mi NNW 26.5 mph 39.1 mph 0.00 in   Mostly Cloudy
7:15 AM 17.6 °F -1.3 °F 14.0 °F 86% 29.70 in 9.0 mi NW 27.6 mph 31.1 mph 0.00 in   Mostly Cloudy
7:35 AM 15.8 °F -3.1 °F 12.2 °F 86% 29.72 in 4.0 mi NW 25.3 mph 35.7 mph 0.00 in   Overcast
7:55 AM 14.0 °F -5.1 °F 10.4 °F 86% 29.73 in 2.5 mi NNW 24.2 mph 35.7 mph 0.00 in   Overcast
8:15 AM 14.0 °F -6.2 °F 10.4 °F 86% 29.74 in 2.5 mi NNW 27.6 mph 34.5 mph 0.00 in   Overcast
8:35 AM 14.0 °F -6.2 °F 8.6 °F 79% 29.75 in 5.0 mi NNW 27.6 mph 34.5 mph 0.00 in   Overcast
8:55 AM 14.0 °F -5.8 °F 8.6 °F 79% 29.77 in 2.5 mi NNW 26.5 mph 36.8 mph 0.00 in   Overcast
9:15 AM 14.0 °F -7.4 °F 8.6 °F 79% 29.78 in 2.5 mi NW 32.2 mph 36.8 mph 0.00 in   Overcast
9:35 AM 12.2 °F -9.6 °F 5.0 °F 73% 29.79 in 3.0 mi NNW 31.1 mph 36.8 mph 0.00 in   Scattered Clouds
9:55 AM 12.2 °F -9.6 °F 5.0 °F 73% 29.80 in 9.0 mi NNW 31.1 mph 36.8 mph 0.00 in   Mostly Cloudy
10:15 AM 12.2 °F -8.2 °F 5.0 °F 73% 29.81 in 8.0 mi NNW 26.5 mph 35.7 mph 0.00 in   Overcast
10:35 AM 12.2 °F -8.6 °F 5.0 °F 73% 29.82 in 2.5 mi NNW 27.6 mph 39.1 mph 0.00 in   Unknown
10:55 AM 12.2 °F -8.6 °F 5.0 °F 73% 29.84 in 5.0 mi NNW 27.6 mph 35.7 mph 0.00 in   Unknown
11:15 AM 12.2 °F -7.9 °F 6.8 °F 79% 29.85 in 7.0 mi NNW 25.3 mph 29.9 mph 0.00 in   Mostly Cloudy
11:35 AM 12.2 °F -8.2 °F 5.0 °F 73% 29.87 in 5.0 mi NNW 26.5 mph 32.2 mph 0.00 in   Overcast
11:55 AM 12.2 °F -8.6 °F 5.0 °F 73% 29.88 in 4.0 mi NNW 27.6 mph 33.4 mph 0.00 in   Overcast
12:15 PM 12.2 °F -9.3 °F 5.0 °F 73% 29.88 in 2.0 mi NNW 29.9 mph 36.8 mph 0.00 in   Overcast
12:35 PM 12.2 °F -8.6 °F 6.8 °F 79% 29.88 in 2.0 mi NNW 27.6 mph 34.5 mph 0.00 in   Overcast
12:55 PM 12.2 °F -9.3 °F 5.0 °F 73% 29.89 in 0.8 mi NNW 29.9 mph 38.0 mph 0.00 in   Overcast
1:15 PM 12.2 °F -10.5 °F 6.8 °F 79% 29.89 in 0.5 mi NNW 34.5 mph 39.1 mph 0.00 in   Overcast
1:35 PM 12.2 °F -9.6 °F 6.8 °F 79% 29.89 in 0.8 mi NNW 31.1 mph 35.7 mph 0.00 in   Overcast
1:55 PM 12.2 °F -9.6 °F 5.0 °F 73% 29.89 in 0.8 mi NNW 31.1 mph 38.0 mph 0.00 in   Overcast
2:15 PM 12.2 °F -10.5 °F 6.8 °F 79% 29.90 in 0.5 mi NNW 34.5 mph 40.3 mph 0.00 in   Overcast
2:35 PM 10.4 °F -12.0 °F 5.0 °F 79% 29.91 in 0.5 mi NNW 31.1 mph 40.3 mph 0.00 in   Overcast
2:55 PM 10.4 °F -11.4 °F 5.0 °F 79% 29.91 in 1.2 mi NNW 28.8 mph 35.7 mph 0.00 in   Overcast
3:15 PM 10.4 °F -11.7 °F 3.2 °F 73% 29.92 in 1.8 mi NNW 29.9 mph 36.8 mph 0.00 in   Overcast
3:35 PM 10.4 °F -9.9 °F 3.2 °F 73% 29.93 in 5.0 mi NNW 24.2 mph - 0.00 in   Overcast
3:55 PM 10.4 °F -11.4 °F 3.2 °F 73% 29.94 in 2.5 mi NNW 28.8 mph 35.7 mph 0.00 in   Overcast
4:15 PM 8.6 °F -13.8 °F 1.4 °F 73% 29.96 in 2.0 mi NNW 28.8 mph 36.8 mph 0.00 in   Overcast
4:35 PM 8.6 °F -11.4 °F 1.4 °F 73% 29.96 in 7.0 mi NNW 21.9 mph - 0.00 in   Overcast
4:55 PM 8.6 °F -12.3 °F 1.4 °F 73% 29.97 in 7.0 mi NNW 24.2 mph 29.9 mph 0.00 in   Overcast
5:15 PM 8.6 °F -11.4 °F 1.4 °F 73% 29.98 in 9.0 mi NNW 21.9 mph - 0.00 in   Mostly Cloudy
5:35 PM 8.6 °F -11.9 °F 1.4 °F 73% 29.99 in 5.0 mi NNW 23.0 mph 29.9 mph 0.00 in   Mostly Cloudy
5:55 PM 8.6 °F -11.4 °F 1.4 °F 73% 30.01 in 7.0 mi NNW 21.9 mph 31.1 mph 0.00 in   Scattered Clouds
6:15 PM 6.8 °F -14.7 °F -0.4 °F 72% 30.01 in 10.0 mi NNW 24.2 mph 28.8 mph 0.00 in   Scattered Clouds
6:35 PM 6.8 °F -12.9 °F -0.4 °F 72% 30.02 in 10.0 mi NNW 19.6 mph 24.2 mph 0.00 in   Mostly Cloudy
6:55 PM 5.0 °F -15.7 °F -0.4 °F 78% 30.03 in 10.0 mi NNW 20.7 mph - 0.00 in   Overcast
7:15 PM 5.0 °F -15.2 °F -0.4 °F 78% 30.03 in 10.0 mi NNW 19.6 mph 27.6 mph 0.00 in   Mostly Cloudy
7:35 PM 5.0 °F -15.7 °F -0.4 °F 78% 30.03 in 10.0 mi NNW 20.7 mph 26.5 mph 0.00 in   Overcast
7:55 PM 6.8 °F -13.4 °F 1.4 °F 79% 30.04 in 6.0 mi NNW 20.7 mph 28.8 mph 0.00 in   Overcast
8:15 PM 6.8 °F -12.9 °F 1.4 °F 79% 30.04 in 5.0 mi North 19.6 mph - 0.00 in   Overcast
8:35 PM 6.8 °F -13.8 °F -0.4 °F 72% 30.05 in 2.5 mi North 21.9 mph 34.5 mph 0.00 in   Overcast
8:55 PM 5.0 °F -16.2 °F -0.4 °F 78% 30.06 in 5.0 mi North 21.9 mph 31.1 mph 0.00 in   Overcast
9:15 PM 5.0 °F -17.1 °F -0.4 °F 78% 30.06 in 5.0 mi North 24.2 mph 33.4 mph 0.00 in   Overcast
9:55 PM 5.0 °F -17.5 °F -0.4 °F 78% 30.08 in 1.8 mi North 25.3 mph 31.1 mph 0.00 in   Unknown
10:15 PM 3.2 °F -19.0 °F -2.2 °F 78% 30.09 in 4.0 mi North 23.0 mph 28.8 mph 0.00 in   Overcast
10:35 PM 3.2 °F -19.0 °F -4.0 °F 72% 30.10 in 2.0 mi North 23.0 mph 32.2 mph 0.00 in   Overcast
10:55 PM 3.2 °F -17.1 °F -4.0 °F 72% 30.11 in 3.0 mi North 18.4 mph - 0.00 in   Overcast
11:15 PM 3.2 °F -18.1 °F -4.0 °F 72% 30.12 in 4.0 mi North 20.7 mph 27.6 mph 0.00 in   Overcast
11:35 PM 3.2 °F -17.6 °F -4.0 °F 72% 30.12 in 5.0 mi NNW 19.6 mph 28.8 mph 0.00 in   Unknown
11:55 PM 3.2 °F -19.5 °F -5.8 °F 66% 30.13 in 4.0 mi NNW 24.2 mph 29.9 mph 0.00 in   Unknown